�������l�o���
Date,Time,MP-1(��Sv/h),MP-2(��Sv/h),MP-3(��Sv/h),MP-4(��Sv/h),MP-5(��Sv/h),MP-6(��Sv/h),MP-7(��Sv/h),MP-8(��Sv/h),����,����(m/s),���J
2022/03/01,00:00,0.589,0.872,0.550,1.068,0.758,0.351,0.610,0.576,�k��,3.1,��
2022/03/01,00:10,0.587,0.875,0.553,1.068,0.760,0.351,0.610,0.577,�k�k��,1.9,��
2022/03/01,00:20,0.587,0.873,0.552,1.068,0.760,0.352,0.609,0.578,-,CALM,��
2022/03/01,00:30,0.588,0.874,0.551,1.067,0.761,0.350,0.609,0.576,�k�k��,0.9,��
2022/03/01,00:40,0.587,0.873,0.552,1.071,0.759,0.352,0.610,0.576,�k,1.7,��
2022/03/01,00:50,0.587,0.874,0.554,1.068,0.759,0.350,0.610,0.578,�k,1.5,��
2022/03/01,01:00,0.588,0.873,0.552,1.067,0.761,0.351,0.610,0.574,�k�k��,0.9,��
2022/03/01,01:10,0.588,0.875,0.552,1.069,0.760,0.351,0.609,0.576,��,1.9,��
2022/03/01,01:20,0.587,0.873,0.553,1.066,0.760,0.351,0.608,0.577,���쓌,3.4,��
2022/03/01,01:30,0.586,0.873,0.552,1.068,0.762,0.351,0.610,0.576,���쓌,3.1,��
2022/03/01,01:40,0.586,0.873,0.552,1.070,0.760,0.351,0.610,0.575,��,3.2,��
2022/03/01,01:50,0.586,0.872,0.552,1.070,0.762,0.350,0.612,0.576,���쓌,2.6,��
2022/03/01,02:00,0.586,0.873,0.549,1.068,0.760,0.350,0.611,0.576,�쓌,2.9,��
2022/03/01,02:10,0.585,0.873,0.551,1.068,0.759,0.351,0.609,0.577,�쓌,2.5,��
2022/03/01,02:20,0.586,0.872,0.550,1.067,0.762,0.351,0.608,0.576,�쓌,3.1,��
2022/03/01,02:30,0.586,0.874,0.552,1.068,0.758,0.351,0.611,0.577,��쓌,2.9,��
2022/03/01,02:40,0.585,0.873,0.552,1.069,0.758,0.350,0.609,0.575,��쓌,3.5,��
2022/03/01,02:50,0.587,0.872,0.552,1.068,0.760,0.351,0.610,0.576,��,3.9,��
2022/03/01,03:00,0.584,0.873,0.551,1.068,0.759,0.350,0.608,0.576,��,3.9,��
2022/03/01,03:10,0.586,0.872,0.551,1.067,0.760,0.351,0.609,0.576,��,3.6,��
2022/03/01,03:20,0.586,0.874,0.552,1.069,0.759,0.351,0.610,0.576,��쓌,4.0,��
2022/03/01,03:30,0.586,0.876,0.552,1.069,0.760,0.351,0.609,0.576,��쓌,3.3,��
2022/03/01,03:40,0.585,0.875,0.550,1.068,0.759,0.351,0.609,0.574,��쓌,3.8,��
2022/03/01,03:50,0.585,0.873,0.551,1.068,0.759,0.351,0.608,0.576,��,3.6,��
2022/03/01,04:00,0.585,0.873,0.550,1.068,0.761,0.351,0.609,0.576,��쓌,3.3,��
2022/03/01,04:10,0.586,0.876,0.551,1.068,0.760,0.351,0.609,0.577,��,3.6,��
2022/03/01,04:20,0.585,0.875,0.550,1.068,0.760,0.350,0.608,0.575,��,3.6,��
2022/03/01,04:30,0.586,0.874,0.551,1.065,0.761,0.352,0.609,0.575,��,3.8,��
2022/03/01,04:40,0.584,0.873,0.551,1.067,0.760,0.351,0.608,0.575,��,4.0,��
2022/03/01,04:50,0.586,0.873,0.552,1.066,0.761,0.351,0.609,0.575,��,4.0,��
2022/03/01,05:00,0.584,0.874,0.551,1.068,0.762,0.349,0.608,0.575,��,3.9,��
2022/03/01,05:10,0.586,0.874,0.549,1.065,0.759,0.351,0.609,0.575,��쓌,4.7,��
2022/03/01,05:20,0.585,0.872,0.549,1.067,0.760,0.351,0.609,0.576,��,3.6,��
2022/03/01,05:30,0.586,0.873,0.550,1.069,0.759,0.350,0.608,0.575,��쓌,3.3,��
2022/03/01,05:40,0.585,0.873,0.551,1.068,0.762,0.352,0.608,0.577,��,3.1,��
2022/03/01,05:50,0.584,0.873,0.551,1.067,0.759,0.351,0.608,0.577,��,4.2,��
2022/03/01,06:00,0.584,0.872,0.552,1.067,0.761,0.350,0.610,0.577,��,3.7,��
2022/03/01,06:10,0.582,0.871,0.550,1.067,0.759,0.351,0.608,0.575,��,2.5,��
2022/03/01,06:20,0.585,0.873,0.550,1.068,0.759,0.351,0.609,0.577,��,4.4,��
2022/03/01,06:30,0.585,0.873,0.553,1.066,0.760,0.349,0.608,0.575,��,2.9,��
2022/03/01,06:40,0.585,0.873,0.553,1.067,0.760,0.350,0.609,0.576,��쓌,2.2,��
2022/03/01,06:50,0.586,0.872,0.552,1.069,0.760,0.349,0.609,0.577,��,1.2,��
2022/03/01,07:00,0.584,0.872,0.550,1.068,0.757,0.350,0.608,0.576,��,4.0,��
2022/03/01,07:10,0.586,0.873,0.552,1.067,0.760,0.351,0.609,0.576,��,3.4,��
2022/03/01,07:20,0.586,0.874,0.552,1.068,0.759,0.350,0.610,0.576,��,4.6,��
2022/03/01,07:30,0.586,0.873,0.551,1.066,0.758,0.350,0.608,0.577,��,4.6,��
2022/03/01,07:40,0.585,0.872,0.552,1.066,0.759,0.351,0.609,0.577,��,4.5,��
2022/03/01,07:50,0.585,0.874,0.552,1.070,0.761,0.352,0.609,0.575,��,4.9,��
2022/03/01,08:00,0.587,0.872,0.553,1.070,0.760,0.352,0.608,0.576,��,5.0,��
2022/03/01,08:10,0.588,0.873,0.552,1.068,0.761,0.351,0.611,0.575,��,3.9,��
2022/03/01,08:20,0.586,0.870,0.551,1.068,0.761,0.351,0.609,0.577,��쓌,4.1,��
2022/03/01,08:30,0.585,0.871,0.553,1.068,0.760,0.350,0.611,0.576,��,3.3,��
2022/03/01,08:40,0.586,0.873,0.553,1.068,0.760,0.351,0.612,0.577,��,5.1,��
2022/03/01,08:50,0.586,0.870,0.552,1.070,0.760,0.351,0.610,0.575,��쓌,5.2,��
2022/03/01,09:00,0.588,0.872,0.551,1.067,0.759,0.351,0.612,0.576,��쓌,4.8,��
2022/03/01,09:10,0.586,0.873,0.552,1.069,0.761,0.351,0.611,0.577,��쓌,4.8,��
2022/03/01,09:20,0.588,0.872,0.554,1.068,0.761,0.350,0.609,0.578,��쓌,4.6,��
2022/03/01,09:30,0.587,0.873,0.552,1.072,0.760,0.350,0.609,0.575,��,5.0,��
2022/03/01,09:40,0.586,0.871,0.553,1.068,0.759,0.352,0.610,0.576,��,5.5,��
2022/03/01,09:50,0.588,0.873,0.553,1.069,0.763,0.352,0.610,0.577,��,4.9,��
2022/03/01,10:00,0.588,0.871,0.554,1.070,0.762,0.351,0.608,0.577,��쓌,5.6,��
2022/03/01,10:10,0.588,0.870,0.554,1.069,0.760,0.351,0.609,0.578,��쓌,6.8,��
2022/03/01,10:20,0.589,0.875,0.553,1.069,0.762,0.351,0.608,0.577,��쓌,5.7,��
2022/03/01,10:30,0.587,0.870,0.553,1.068,0.762,0.352,0.611,0.576,��쓌,6.6,��
2022/03/01,10:40,0.588,0.868,0.554,1.069,0.762,0.352,0.610,0.575,��쓌,5.9,��
2022/03/01,10:50,0.588,0.870,0.555,1.069,0.761,0.351,0.610,0.577,��쓌,6.0,��
2022/03/01,11:00,0.588,0.870,0.554,1.070,0.761,0.351,0.609,0.575,�쓌,6.4,��
2022/03/01,11:10,0.588,0.870,0.553,1.069,0.760,0.352,0.609,0.576,��쓌,5.1,��
2022/03/01,11:20,0.585,0.871,0.556,1.069,0.761,0.350,0.608,0.576,�쓌,5.2,��
2022/03/01,11:30,0.588,0.871,0.555,1.068,0.760,0.350,0.607,0.575,�쓌,4.9,��
2022/03/01,11:40,0.589,0.870,0.554,1.070,0.762,0.351,0.605,0.574,�쓌,5.3,��
2022/03/01,11:50,0.587,0.870,0.555,1.070,0.761,0.351,0.608,0.574,�쓌,4.7,��
2022/03/01,12:00,0.589,0.873,0.555,1.069,0.762,0.351,0.609,0.577,�쓌,4.3,��
2022/03/01,12:10,0.589,0.875,0.557,1.067,0.762,0.351,0.609,0.576,�쓌,4.1,��
2022/03/01,12:20,0.588,0.873,0.555,1.069,0.760,0.352,0.610,0.577,�쓌,4.1,��
2022/03/01,12:30,0.589,0.876,0.554,1.069,0.761,0.353,0.609,0.578,�쓌,3.8,��
2022/03/01,12:40,0.590,0.873,0.555,1.070,0.760,0.353,0.611,0.578,�쓌,4.7,��
2022/03/01,12:50,0.588,0.873,0.555,1.070,0.762,0.353,0.611,0.577,�쓌,4.7,��
2022/03/01,13:00,0.588,0.875,0.555,1.073,0.761,0.354,0.609,0.576,�쓌,3.2,��
2022/03/01,13:10,0.588,0.874,0.552,1.072,0.763,0.353,0.609,0.576,�쓌,2.3,��
2022/03/01,13:20,0.587,0.872,0.552,1.071,0.759,0.355,0.610,0.574,�쓌,4.9,��
2022/03/01,13:30,0.587,0.873,0.553,1.070,0.760,0.354,0.611,0.575,�쓌,4.7,��
2022/03/01,13:40,0.586,0.871,0.556,1.070,0.760,0.353,0.609,0.574,�쓌,5.1,��
2022/03/01,13:50,0.588,0.871,0.555,1.071,0.762,0.352,0.610,0.576,��쓌,3.7,��
2022/03/01,14:00,0.587,0.871,0.555,1.070,0.760,0.351,0.610,0.575,��쓌,4.7,��
2022/03/01,14:10,0.588,0.873,0.554,1.071,0.760,0.353,0.611,0.575,�쓌,4.9,��
2022/03/01,14:20,0.588,0.871,0.554,1.070,0.764,0.353,0.610,0.575,��쓌,4.2,��
2022/03/01,14:30,0.588,0.873,0.555,1.072,0.762,0.352,0.610,0.576,�쓌,4.7,��
2022/03/01,14:40,0.590,0.871,0.554,1.071,0.762,0.355,0.611,0.576,��쓌,4.3,��
2022/03/01,14:50,0.587,0.871,0.557,1.070,0.763,0.353,0.610,0.576,��쓌,4.7,��
2022/03/01,15:00,0.588,0.873,0.556,1.071,0.761,0.353,0.611,0.576,��쓌,4.9,��
2022/03/01,15:10,0.588,0.874,0.555,1.070,0.762,0.354,0.610,0.575,��쓌,4.3,��
2022/03/01,15:20,0.590,0.873,0.555,1.070,0.761,0.352,0.610,0.575,��쓌,5.1,��
2022/03/01,15:30,0.588,0.876,0.556,1.069,0.763,0.353,0.609,0.575,��,5.1,��
2022/03/01,15:40,0.590,0.877,0.555,1.072,0.763,0.351,0.610,0.577,��,3.7,��
2022/03/01,15:50,0.590,0.876,0.556,1.070,0.764,0.352,0.612,0.577,��쓌,3.9,��
2022/03/01,16:00,0.592,0.877,0.556,1.071,0.763,0.353,0.608,0.577,��쓌,4.3,��
2022/03/01,16:10,0.592,0.878,0.555,1.073,0.762,0.353,0.608,0.579,��쓌,4.7,��
2022/03/01,16:20,0.591,0.875,0.556,1.071,0.765,0.352,0.610,0.579,��쓌,3.6,��
2022/03/01,16:30,0.591,0.877,0.555,1.072,0.764,0.353,0.611,0.579,�쓌,4.0,��
2022/03/01,16:40,0.590,0.877,0.557,1.072,0.763,0.353,0.611,0.578,�쓌,2.9,��
2022/03/01,16:50,0.591,0.878,0.556,1.072,0.763,0.353,0.609,0.580,�쓌,3.3,��
2022/03/01,17:00,0.591,0.876,0.556,1.071,0.764,0.353,0.611,0.579,��쓌,3.4,��
2022/03/01,17:10,0.591,0.878,0.555,1.074,0.765,0.353,0.611,0.578,��,2.0,��
2022/03/01,17:20,0.591,0.878,0.556,1.071,0.764,0.352,0.612,0.577,���쐼,2.5,��
2022/03/01,17:30,0.589,0.879,0.556,1.070,0.763,0.353,0.612,0.579,��,3.4,��
2022/03/01,17:40,0.590,0.877,0.554,1.072,0.764,0.354,0.612,0.579,��,4.5,��
2022/03/01,17:50,0.592,0.877,0.556,1.072,0.764,0.354,0.612,0.578,��,6.0,��
2022/03/01,18:00,0.593,0.875,0.556,1.071,0.765,0.354,0.613,0.578,��,6.5,��
2022/03/01,18:10,0.590,0.877,0.555,1.070,0.764,0.353,0.613,0.577,��,6.0,��
2022/03/01,18:20,0.589,0.875,0.555,1.071,0.765,0.354,0.612,0.578,��,5.2,��
2022/03/01,18:30,0.590,0.876,0.556,1.071,0.763,0.354,0.613,0.579,���k��,5.6,��
2022/03/01,18:40,0.590,0.875,0.557,1.073,0.763,0.353,0.612,0.578,��,5.6,��
2022/03/01,18:50,0.590,0.876,0.553,1.069,0.765,0.353,0.613,0.577,��,5.9,��
2022/03/01,19:00,0.591,0.878,0.555,1.071,0.762,0.353,0.614,0.578,��,3.2,��
2022/03/01,19:10,0.591,0.875,0.555,1.070,0.765,0.354,0.614,0.577,��,3.0,��
2022/03/01,19:20,0.591,0.878,0.556,1.073,0.763,0.352,0.613,0.577,�쐼,1.9,��
2022/03/01,19:30,0.590,0.877,0.556,1.071,0.764,0.354,0.613,0.578,��쓌,2.9,��
2022/03/01,19:40,0.590,0.878,0.555,1.072,0.762,0.352,0.613,0.578,��쓌,2.2,��
2022/03/01,19:50,0.591,0.875,0.555,1.071,0.761,0.352,0.612,0.578,�쓌,2.6,��
2022/03/01,20:00,0.590,0.875,0.556,1.070,0.764,0.353,0.611,0.579,�쓌,3.1,��
2022/03/01,20:10,0.589,0.876,0.555,1.073,0.763,0.354,0.612,0.578,�쓌,4.4,��
2022/03/01,20:20,0.590,0.877,0.556,1.070,0.763,0.352,0.613,0.579,�쓌,3.0,��
2022/03/01,20:30,0.591,0.877,0.554,1.071,0.764,0.351,0.612,0.578,�쓌,2.8,��
2022/03/01,20:40,0.590,0.877,0.555,1.071,0.762,0.353,0.613,0.578,�쓌,1.7,��
2022/03/01,20:50,0.589,0.876,0.555,1.070,0.762,0.353,0.613,0.578,�쓌,3.1,��
2022/03/01,21:00,0.590,0.877,0.555,1.070,0.762,0.354,0.613,0.579,��쓌,4.1,��
2022/03/01,21:10,0.591,0.874,0.555,1.070,0.763,0.354,0.612,0.578,�쓌,2.9,��
2022/03/01,21:20,0.590,0.876,0.557,1.069,0.763,0.353,0.612,0.579,���쓌,2.0,��
2022/03/01,21:30,0.590,0.877,0.555,1.070,0.762,0.353,0.612,0.578,���쓌,0.9,��
2022/03/01,21:40,0.591,0.876,0.555,1.069,0.764,0.352,0.613,0.578,�쓌,1.9,��
2022/03/01,21:50,0.589,0.875,0.555,1.072,0.762,0.353,0.611,0.578,��,0.9,��
2022/03/01,22:00,0.591,0.877,0.555,1.071,0.763,0.352,0.612,0.578,���쐼,1.4,��
2022/03/01,22:10,0.591,0.876,0.555,1.072,0.762,0.352,0.612,0.577,���쐼,1.7,��
2022/03/01,22:20,0.590,0.875,0.556,1.070,0.761,0.353,0.611,0.577,��,3.0,��
2022/03/01,22:30,0.588,0.875,0.555,1.070,0.762,0.353,0.613,0.577,��,4.0,��
2022/03/01,22:40,0.591,0.877,0.556,1.071,0.764,0.353,0.613,0.578,��,4.5,��
2022/03/01,22:50,0.591,0.878,0.556,1.073,0.764,0.353,0.612,0.577,��,4.4,��
2022/03/01,23:00,0.590,0.877,0.555,1.070,0.762,0.355,0.613,0.577,��,5.2,��
2022/03/01,23:10,0.590,0.876,0.556,1.072,0.762,0.353,0.614,0.577,��,5.3,��
2022/03/01,23:20,0.590,0.876,0.556,1.073,0.765,0.353,0.613,0.577,���k��,5.6,��
2022/03/01,23:30,0.589,0.877,0.554,1.071,0.761,0.352,0.614,0.577,�k��,4.7,��
2022/03/01,23:40,0.589,0.877,0.555,1.070,0.761,0.352,0.612,0.580,�k�k��,6.2,��
2022/03/01,23:50,0.589,0.874,0.555,1.070,0.764,0.353,0.612,0.577,�k�k��,6.0,��
